EW9931 Weather Reports


Display with metric or nautical units.
time (UTC)temp
F
wind
direction
speed
MPH
gust
MPH
rain 1hr
in
rain 24hr
in
rain mn
in
humidity
%
barometer
mb
20260506081548 30 0 0.0 0.0 0.00 0.00 0.00 85 1012.0
20260506073041 30 0 0.0 0.0 0.00 0.00 0.11 84 1013.6
20260506071540 31 0 0.0 0.0 0.00 0.00 0.11 84 1013.6
20260506061540 32 0 0.0 0.0 0.00 0.00 0.11 82 1012.9
20260506044535 37 0 0.0 0.0 0.00 0.00 0.11 80 1011.0
20260506043031 37 0 0.0 0.0 0.00 0.00 0.11 79 1010.1
20260506041534 38 0 0.0 0.0 0.00 0.00 0.11 75 1010.2
20260506040030 38 0 0.0 0.0 0.00 0.00 0.11 76 1009.8
20260506034528 38 0 0.0 0.0 0.00 0.00 0.11 76 1009.7
20260506033025 39 0 0.0 0.0 0.00 0.00 0.11 75 1009.7
20260506031529 39 0 0.0 0.0 0.00 0.00 0.11 75 1009.0
20260506030024 39 0 0.0 0.0 0.00 0.00 0.11 74 1009.2
20260506024536 40 0 0.0 0.0 0.00 0.00 0.11 72 1009.0
20260506023024 40 0 0.0 0.0 0.00 0.00 0.11 70 1008.9
20260506021522 41 0 0.0 0.0 0.00 0.00 0.11 69 1008.2
20260506020024 41 0 0.0 0.0 0.00 0.00 0.11 69 1008.0
20260506014523 41 0 0.0 0.0 0.00 0.00 0.11 68 1007.8
20260506013022 41 54 0.0 0.0 0.00 0.00 0.11 67 1007.7
20260506011549 41 206 0.0 0.0 0.00 0.00 0.11 71 1007.6
20260506010020 42 222 0.0 0.0 0.00 0.00 0.11 69 1007.7
20260506004520 40 222 0.0 0.0 0.00 0.00 0.11 74 1008.0
20260506003020 41 216 0.0 0.0 0.00 0.00 0.11 73 1007.5
20260506001519 41 216 0.0 0.0 0.00 0.00 0.11 72 1008.0
20260506000033 40 191 0.0 0.0 0.00 0.00 0.11 74 1007.9
20260505234535 40 191 0.0 0.0 0.00 0.00 0.11 74 1007.8
20260505233018 41 200 0.0 0.0 0.00 0.00 0.11 71 1007.3
20260505231517 42 209 0.0 0.0 0.00 0.00 0.11 65 1007.2
20260505230035 41 191 0.0 0.0 0.00 0.00 0.11 69 1007.2
20260505224530 43 131 0.0 0.0 0.00 0.00 0.11 68 1007.3
20260505223021 42 295 0.0 0.0 0.00 0.00 0.11 69 1007.3
20260505221513 42 188 1.0 0.0 0.00 0.00 0.11 71 1007.5
20260505220011 42 219 0.0 0.0 0.00 0.00 0.11 67 1007.8
20260505214514 40 185 0.0 0.0 0.00 0.00 0.11 71 1008.3
20260505213009 41 193 0.0 0.0 0.00 0.00 0.11 69 1008.5
20260505211514 40 185 0.0 0.0 0.00 0.00 0.11 69 1008.6
20260505210007 41 209 0.0 0.0 0.00 0.00 0.11 69 1008.0
20260505204504 39 120 0.0 0.0 0.00 0.00 0.11 77 1008.3
20260505203001 37 222 1.0 0.0 0.00 0.00 0.11 80 1008.9
20260505201559 37 223 0.0 0.0 0.00 0.00 0.11 86 1008.9
20260505200056 35 308 0.0 0.0 0.00 0.00 0.11 86 1009.0
20260505194614 35 229 0.0 0.0 0.00 0.00 0.11 88 1008.9
20260505193054 35 206 0.0 0.0 0.00 0.00 0.11 88 1009.6
20260505191605 35 222 0.0 0.0 0.00 0.00 0.11 90 1009.4
20260505190050 34 226 0.0 0.0 0.00 0.00 0.11 90 1009.3
20260505184550 33 234 0.0 0.0 0.00 0.00 0.11 89 1009.5
20260505183053 34 150 0.0 0.0 0.00 0.00 0.11 90 1009.3
20260505181549 34 138 0.0 0.0 0.00 0.00 0.11 90 1009.3
20260505180055 33 157 1.0 0.0 0.00 0.00 0.11 90 1009.7
20260505174548 33 195 0.0 0.0 0.00 0.00 0.11 90 1009.3
20260505173102 33 34 0.0 0.0 0.00 0.00 0.10 90 1009.1
20260505171558 33 165 1.0 0.0 0.00 0.00 0.10 90 1008.8
20260505170046 33 193 1.0 0.0 0.00 0.00 0.10 90 1008.3
20260505164545 34 195 0.0 0.0 0.00 0.00 0.09 90 1008.1
20260505163045 34 220 1.0 0.0 0.00 0.00 0.08 90 1007.9
20260505161543 34 143 0.0 0.0 0.00 0.00 0.07 90 1007.6
20260505153041 33 200 0.0 0.0 0.00 0.00 0.03 90 1007.7
20260505151539 32 152 0.0 0.0 0.00 0.00 0.01 90 1007.6
20260505124542 32 162 0.0 0.0 0.00 0.00 0.01 89 1006.3
20260505123030 32 169 0.0 0.0 0.00 0.00 0.01 89 1006.6
20260505121550 32 168 0.0 0.0 0.00 0.00 0.01 89 1006.7
20260505120029 32 137 0.0 0.0 0.00 0.00 0.01 88 1006.6
20260505114530 32 155 0.0 0.0 0.00 0.00 0.01 88 1006.7
20260505113030 32 171 0.0 0.0 0.00 0.00 0.01 88 1006.7
20260505111534 32 179 1.0 0.0 0.00 0.00 0.01 88 1006.7
20260505101522 32 193 0.0 0.0 0.00 0.00 0.01 89 1007.0
20260505100032 32 136 1.0 0.0 0.00 0.00 0.01 88 1006.5
20260505094518 32 141 2.0 0.0 0.00 0.00 0.01 88 1006.3
20260505093025 32 203 3.0 0.0 0.00 0.00 0.01 88 1006.6
20260505091517 32 154 1.0 0.0 0.00 0.00 0.01 88 1006.9
20260505090013 33 226 0.0 0.0 0.00 0.00 0.01 88 1006.4
20260505084512 33 210 1.0 0.0 0.00 0.00 0.01 88 1006.6
20260505083010 33 206 1.0 0.0 0.00 0.00 0.01 88 1007.0